Location: ????????
(60.5616°N, 46.8254°E)
Time: 08:54:18
(UTC+00:00)

CZ-2C R/B - Pass Details

Date: 18 February 2020
Orbit: 784 x 871 km, 98.3° (Epoch: 09 April)

Event Time Altitude Azimuth Distance (km) Brightness Sun altitude
Rises 18:14:30 0° 17° (NNE) 3,475 6.1 -31.8°
Reaches altitude 10° 18:16:55 10° 15° (NNE) 2,530 5.4 -32.1°
Enters shadow 18:20:42 43° 3° (N) 1,200 3.6 -32.4°
